TimeAKDT,TemperatureF,Dew PointF,Humidity,Sea Level PressureIn,VisibilityMPH,Wind Direction,Wind SpeedMPH,Gust SpeedMPH,PrecipitationIn,Events,Conditions,WindDirDegrees,DateUTC
12:54 AM,48.0,44.1,86,29.53,10.0,WNW,10.4,-,N/A,,Mostly Cloudy,290,2013-10-01 08:54:00
1:54 AM,46.9,44.1,90,29.55,10.0,WNW,9.2,-,N/A,,Overcast,300,2013-10-01 09:54:00
2:54 AM,46.9,44.1,90,29.57,10.0,WNW,9.2,-,0.01,Rain,Light Rain,290,2013-10-01 10:54:00
3:54 AM,46.9,45.0,93,29.58,10.0,WNW,9.2,-,0.00,Rain,Light Rain,290,2013-10-01 11:54:00
4:54 AM,48.0,43.0,83,29.59,10.0,NW,8.1,-,0.01,,Overcast,310,2013-10-01 12:54:00
5:54 AM,48.9,43.0,80,29.60,10.0,NW,8.1,-,0.00,Rain,Light Rain,320,2013-10-01 13:54:00
6:54 AM,48.0,43.0,83,29.62,10.0,NW,9.2,-,0.02,Rain,Light Rain,320,2013-10-01 14:54:00
7:54 AM,48.0,43.0,83,29.63,10.0,NNW,9.2,-,0.01,,Overcast,330,2013-10-01 15:54:00
8:54 AM,48.9,44.1,83,29.65,10.0,NW,10.4,-,N/A,,Overcast,320,2013-10-01 16:54:00
9:54 AM,48.9,44.1,83,29.68,10.0,NW,11.5,-,0.00,Rain,Light Rain,320,2013-10-01 17:54:00
10:54 AM,48.9,44.1,83,29.70,10.0,WNW,8.1,-,0.00,Rain,Light Rain,300,2013-10-01 18:54:00
11:54 AM,48.0,45.0,89,29.73,7.0,Calm,Calm,-,0.02,Rain,Light Rain,0,2013-10-01 19:54:00
12:54 PM,48.0,46.0,93,29.76,10.0,Calm,Calm,-,0.03,Rain,Light Rain,0,2013-10-01 20:54:00
1:38 PM,48.2,46.4,93,29.77,7.0,SE,4.6,-,0.02,Rain,Light Rain,140,2013-10-01 21:38:00
1:54 PM,48.0,46.0,93,29.78,10.0,ESE,3.5,-,0.02,Rain,Light Rain,120,2013-10-01 21:54:00
2:21 PM,48.2,46.4,93,29.79,10.0,ESE,3.5,-,0.00,Rain,Light Rain,110,2013-10-01 22:21:00
2:36 PM,48.2,46.4,93,29.79,8.0,ESE,4.6,-,0.01,Rain,Light Rain,120,2013-10-01 22:36:00
2:54 PM,48.9,46.9,93,29.80,10.0,ESE,4.6,-,0.01,Rain,Light Rain,120,2013-10-01 22:54:00
3:33 PM,48.2,46.4,93,29.80,10.0,East,4.6,-,0.01,Rain,Light Rain,100,2013-10-01 23:33:00
3:43 PM,48.2,46.4,93,29.80,10.0,East,4.6,-,0.01,Rain,Light Rain,90,2013-10-01 23:43:00
3:54 PM,48.9,46.9,93,29.82,10.0,East,4.6,-,0.01,,Overcast,90,2013-10-01 23:54:00
4:26 PM,48.2,46.4,93,29.82,10.0,ESE,3.5,-,N/A,,Overcast,110,2013-10-02 00:26:00
4:54 PM,48.9,46.9,93,29.83,10.0,ESE,4.6,-,0.00,Rain,Light Rain,110,2013-10-02 00:54:00
5:21 PM,48.2,46.4,93,29.83,9.0,East,4.6,-,0.02,Rain,Light Rain,80,2013-10-02 01:21:00
5:54 PM,48.0,46.0,93,29.85,7.0,ESE,4.6,-,0.03,Rain,Light Rain,110,2013-10-02 01:54:00
6:54 PM,46.0,45.0,96,29.86,10.0,East,3.5,-,0.01,,Overcast,80,2013-10-02 02:54:00
7:54 PM,46.0,45.0,96,29.88,10.0,East,3.5,-,N/A,,Overcast,80,2013-10-02 03:54:00
8:54 PM,46.0,45.0,96,29.90,10.0,Calm,Calm,-,0.01,,Overcast,0,2013-10-02 04:54:00
9:54 PM,44.1,43.0,96,29.92,10.0,Calm,Calm,-,N/A,,Mostly Cloudy,0,2013-10-02 05:54:00
10:54 PM,45.0,43.0,93,29.95,10.0,Calm,Calm,-,N/A,,Overcast,0,2013-10-02 06:54:00
11:54 PM,44.1,43.0,96,29.96,10.0,Calm,Calm,-,N/A,,Mostly Cloudy,0,2013-10-02 07:54:00